Location: Isola Pescaroli
(45.0500°N, 10.1667°E)
Time: 01:35:59
(UTC+00:00)

SL-4 R/B - Pass Details

Date: 15 June 2021
Orbit: 428 x 662 km, 51.6° (Epoch: 29 July)

Event Time Altitude Azimuth Distance (km) Brightness Sun altitude
Exits shadow 01:55:46 - 279° (W) 2,316 4.9 -13.0°
Reaches altitude 10° 01:57:34 10° 288° (WNW) 1,640 4.3 -12.8°
Maximum altitude 02:00:50 30° 351° (N) 853 3.5 -12.4°
Drops below altitude 10° 02:03:58 10° 54° (NE) 1,561 5.7 -12.1°
Sets 02:06:13 0° 66° (ENE) 2,412 6.5 -11.8°
